Wind_Speed
34 37 33 33 31 33 36 40 36 44 42 47 46 42 40 39 41 40 35 31 30 29 31 32 29 30 30 25 27 25 30 37 35 36 36 42 44 43 42 40 39 37 38 38
36 40 29 29 36 46 50 44 46 49 52 54 47 42 41 43 38 35 34 31 30 28 31 34 30 30 32 28 25 27 27 29 32 35 35 37 38 39 43 41 38 39 41 42
38 39 29 30 55 49 48 49 46 48 52 44 47 41 40 44 35 34 31 31 31 30 29 34 36 30 35 31 29 30 30 32 32 32 33 32 33 38 37 42 44 38 44 46
36 29 22 50 35 38 44 44 41 44 44 43 42 39 37 38 32 35 37 37 36 30 30 32 34 36 34 34 28 29 31 30 28 30 29 30 34 37 36 37 41 42 44 47
36 34 32 39 37 33 34 42 38 38 39 41 39 35 44 43 33 41 40 38 39 38 34 36 35 37 32 36 33 33 31 31 29 30 33 30 31 35 38 37 38 40 40 42
28 29 19 45 38 24 23 42 28 26 38 40 38 40 46 37 26 31 34 31 29 27 27 33 36 34 37 35 40 44 39 38 36 37 30 31 31 32 33 35 33 34 33 31
44 37 37 40 40 27 35 38 19 21 28 28 30 31 32 38 30 29 30 23 26 30 28 30 32 32 39 38 39 32 29 31 36 28 25 24 24 26 27 27 28 28 27 26
39 40 36 35 28 33 42 35 29 30 30 35 38 34 24 20 16 22 19 23 25 30 31 31 37 38 38 41 33 17 19 19 23 22 21 21 22 22 23 23 24 24 24 24
48 45 39 29 29 28 29 31 34 36 44 40 43 39 37 34 31 23 31 32 35 33 33 34 39 42 42 34 28 16 21 20 18 18 18 18 18 19 20 21 21 21 21 21
33 54 64 54 57 55 48 46 49 39 41 42 46 46 42 33 33 29 31 33 34 36 37 38 34 30 33 21 12 17 16 16 15 14 14 15 16 17 18 17 17 18 21 25
52 66 51 56 52 50 47 48 52 41 42 46 37 40 38 38 35 32 36 29 29 33 25 28 21 8 6 13 18 17 15 13 13 14 14 15 15 14 14 16 19 22 25 28
70 57 48 67 49 47 48 49 50 48 50 40 40 37 38 45 35 30 36 29 36 38 29 18 11 15 18 16 12 12 13 13 13 12 11 11 12 13 17 21 23 27 32 38
64 63 63 69 62 54 57 54 50 48 41 37 36 46 37 38 28 42 44 38 46 41 31 17 16 18 17 15 14 13 11 9 8 9 9 11 15 19 22 24 28 35 40 41
64 68 73 67 66 49 51 49 43 37 42 39 38 30 38 30 33 37 41 42 36 32 22 18 21 19 17 13 11 9 8 9 7 8 12 16 20 24 27 31 34 36 37 36
67 61 61 60 64 65 55 52 55 51 44 35 34 31 30 33 34 26 34 31 30 25 25 21 17 16 14 13 11 9 7 6 9 14 18 22 25 28 30 31 30 30 29 30
60 57 53 54 52 44 45 41 41 46 36 30 30 31 34 29 30 21 31 28 25 24 23 16 16 17 15 12 8 5 7 10 15 19 22 25 26 26 25 24 25 26 27 28
63 57 50 43 36 21 18 29 39 37 28 27 31 42 30 26 26 35 34 32 30 18 18 17 16 14 10 7 5 7 12 16 20 22 23 21 19 18 20 22 24 25 26 27
34 34 38 36 21 20 18 24 30 25 27 29 19 24 27 33 40 37 32 30 22 18 17 18 15 10 6 4 8 12 16 19 19 17 15 14 16 18 21 22 24 24 25 25
33 27 25 22 16 17 24 27 18 21 21 24 15 23 38 39 37 31 29 22 17 17 18 15 10 5 5 9 13 16 17 14 12 12 13 15 18 20 22 24 24 24 25 26
28 22 24 22 21 26 30 30 26 29 30 25 17 38 39 38 33 26 23 18 21 18 14 10 7 7 9 13 14 12 9 10 11 12 14 17 21 23 24 24 24 25 25 24
14 21 19 15 14 21 26 16 17 24 28 28 44 44 41 34 30 23 20 23 21 17 13 8 6 10 11 10 7 7 8 9 11 14 17 20 21 22 22 23 24 24 21 19
16 11 14 16 16 6 16 18 28 40 44 48 46 41 36 33 28 26 25 18 15 11 7 7 9 8 6 4 5 7 9 11 14 16 17 19 22 23 22 23 22 21 19 17
19 12 16 14 13 11 21 27 45 49 49 46 39 36 31 28 28 25 20 16 12 9 7 6 4 2 3 5 8 10 13 15 15 15 17 20 23 23 23 22 20 18 17 16
19 17 17 17 18 24 48 57 48 44 44 41 35 32 29 28 26 22 18 13 9 7 5 3 1 3 6 9 11 13 14 14 15 15 18 19 21 23 23 22 19 17 16 14
13 17 19 33 48 49 42 45 42 40 39 36 35 32 30 26 17 14 11 9 7 6 5 0 4 6 8 10 12 13 13 14 14 15 18 20 21 21 21 21 20 18 16 13
47 51 48 44 43 39 37 38 37 40 37 35 32 28 24 19 15 12 9 6 7 4 0 3 6 8 10 12 13 14 14 13 15 16 18 20 20 20 21 21 21 19 18 16
41 40 41 43 41 40 38 34 33 34 31 28 24 21 17 13 10 7 6 6 3 1 2 4 8 10 12 13 14 14 14 14 15 18 18 20 20 21 22 22 22 20 19 19
Wind_Direction
257 262 262 266 264 256 253 250 257 266 269 271 276 280 284 282 284 288 286 282 281 278 276 280 277 279 276 274 265 247 239 240 239 237 234 233 232 236 241 245 250 255 257 257
262 258 260 262 254 255 254 260 262 264 270 272 280 282 283 282 282 282 281 279 279 279 272 272 279 275 267 264 257 257 237 235 233 236 239 233 236 242 247 250 255 256 253 256
256 262 267 254 246 253 262 259 263 267 270 280 281 279 280 280 281 278 274 275 284 278 270 267 271 276 256 255 251 236 240 245 239 234 234 230 228 237 243 247 249 252 256 262
258 272 262 249 257 255 259 266 267 268 272 275 276 279 275 272 280 270 271 272 281 274 267 261 265 276 256 246 242 239 240 237 237 233 232 232 239 242 252 249 246 253 262 263
243 249 257 265 254 257 262 270 266 273 274 274 281 280 272 277 272 267 279 283 271 266 262 261 270 267 255 239 231 238 236 234 231 237 233 242 248 250 256 261 259 263 267 269
238 239 250 260 272 270 279 268 265 275 277 279 280 279 265 271 268 273 279 271 271 266 255 260 263 254 224 234 253 264 246 230 228 241 244 250 254 255 257 257 260 267 273 276
235 246 254 257 265 277 269 273 284 277 265 276 274 269 289 295 275 274 266 282 276 259 258 261 247 236 233 242 250 245 251 226 246 246 245 248 254 256 259 262 266 270 274 274
235 235 247 256 265 253 272 278 278 282 285 290 282 260 264 259 262 278 279 279 286 264 260 259 249 245 245 247 269 192 223 232 235 239 247 253 256 258 263 268 271 273 274 276
248 250 252 249 269 256 246 279 277 280 288 283 278 268 274 277 276 281 284 275 283 279 257 249 240 245 258 255 249 242 233 229 239 245 247 249 255 260 264 266 270 271 275 279
258 250 251 261 262 258 268 278 279 284 281 285 289 270 261 257 267 267 263 258 278 266 255 244 238 240 245 236 202 226 232 232 235 241 249 256 259 261 265 268 273 278 282 282
262 258 267 265 265 269 273 270 277 281 278 279 281 275 266 269 272 258 257 250 253 235 235 259 245 160 163 191 226 233 233 241 249 253 255 258 258 264 270 275 283 288 288 286
257 263 269 269 272 271 271 272 271 272 278 274 266 260 257 265 253 245 233 248 212 221 235 246 200 196 219 231 230 237 243 244 249 251 251 259 266 276 285 288 287 287 283 281
264 273 269 273 275 270 268 272 272 274 273 276 264 264 272 251 245 229 236 243 226 232 250 172 197 211 223 230 228 231 234 230 236 247 262 274 282 285 288 289 286 280 279 280
268 271 273 271 272 279 277 274 274 269 269 269 266 267 258 249 247 237 237 222 209 229 174 183 205 216 217 216 210 204 210 225 241 264 280 290 296 296 293 288 285 282 281 281
280 283 280 276 275 273 265 260 262 261 259 249 271 259 248 247 253 236 201 196 186 159 185 194 207 206 200 190 188 198 218 255 282 294 302 302 298 294 292 292 291 292 295 295
284 280 275 270 267 259 257 258 256 258 256 243 244 244 245 229 234 207 149 143 157 178 190 194 193 183 176 179 188 218 262 289 305 306 301 298 301 303 304 306 306 306 304 304
267 267 268 271 255 254 268 255 253 258 270 263 241 229 214 201 187 157 162 164 181 170 171 183 175 168 169 187 229 288 307 305 300 300 305 312 316 319 319 317 316 315 313 311
289 278 247 248 243 247 244 246 250 248 258 252 205 198 206 180 160 165 173 174 154 171 176 163 158 167 189 255 294 299 296 298 306 319 327 330 330 330 329 327 323 320 317 315
270 276 239 214 220 237 249 237 241 237 230 203 185 171 157 154 168 177 165 149 170 172 161 158 160 189 259 282 289 295 304 320 335 339 341 335 329 326 326 324 322 321 321 320
266 256 224 204 215 241 257 249 236 225 221 219 191 159 156 169 176 148 140 156 160 157 164 168 192 239 270 285 296 316 338 337 340 338 330 326 327 325 324 324 324 323 320 317
224 184 199 213 229 231 230 216 205 191 188 181 165 166 171 151 127 125 151 161 163 165 178 194 236 267 281 307 328 332 335 337 331 329 328 325 327 327 328 329 325 320 321 321
188 183 180 192 187 156 176 190 169 159 160 161 171 164 137 129 135 155 157 158 167 176 194 233 262 288 312 316 324 325 326 327 325 320 324 330 332 330 326 324 323 326 323 320
207 200 195 192 185 178 187 175 148 152 160 160 145 130 133 141 149 154 157 160 175 202 228 254 274 276 291 306 320 321 318 313 310 320 328 326 326 323 320 320 324 325 322 318
155 153 162 164 163 164 148 151 155 148 141 129 132 137 141 147 150 156 167 180 200 214 233 196 246 324 325 324 323 314 307 306 312 320 326 330 327 321 319 321 320 321 319 315
153 157 153 147 147 147 138 128 122 123 133 139 139 141 146 150 157 167 178 195 203 195 184 132 346 337 332 326 317 308 305 306 315 317 317 321 322 321 322 322 321 317 313 308
126 127 129 127 125 122 120 126 135 142 140 138 141 144 147 155 164 175 183 194 175 179 300 342 342 339 330 322 321 319 313 312 310 308 310 315 321 323 323 323 320 313 306 304
118 114 115 119 118 118 119 125 125 130 134 137 142 145 151 160 163 166 166 165 182 279 310 332 329 327 321 318 321 326 318 308 304 308 308 315 318 320 323 321 317 311 305 302
Height
3103 3103 3107 3108 3107 3105 3101 3097 3099 3091 3095 3090 3091 3094 3094 3092 3090 3087 3084 3083 3081 3080 3074 3071 3070 3068 3068 3067 3065 3065 3067 3069 3071 3075 3078 3084 3088 3092 3095 3096 3099 3101 3101 3102
3094 3091 3101 3102 3099 3090 3084 3091 3089 3086 3082 3079 3082 3086 3083 3079 3080 3078 3076 3074 3073 3072 3069 3063 3062 3062 3061 3060 3060 3060 3059 3064 3065 3069 3073 3076 3081 3085 3088 3090 3091 3092 3093 3093
3084 3084 3092 3093 3071 3077 3080 3078 3080 3077 3072 3077 3069 3074 3074 3066 3071 3069 3066 3066 3065 3064 3062 3057 3053 3053 3053 3054 3052 3053 3055 3058 3059 3061 3066 3069 3073 3076 3079 3079 3081 3084 3084 3084
3078 3082 3078 3055 3072 3069 3066 3066 3070 3067 3065 3065 3063 3064 3063 3059 3061 3058 3055 3055 3053 3053 3053 3050 3045 3043 3045 3046 3045 3048 3049 3052 3054 3055 3059 3063 3066 3068 3068 3071 3074 3075 3075 3075
3076 3061 3060 3055 3054 3059 3059 3052 3058 3059 3055 3052 3055 3055 3045 3046 3052 3046 3045 3044 3042 3041 3041 3040 3037 3034 3037 3037 3037 3040 3043 3045 3047 3050 3053 3055 3058 3060 3062 3063 3064 3066 3067 3066
3061 3056 3047 3038 3046 3052 3050 3036 3049 3049 3044 3043 3045 3043 3033 3036 3041 3038 3034 3033 3030 3027 3028 3028 3026 3026 3027 3027 3031 3031 3030 3035 3039 3043 3046 3048 3051 3053 3054 3055 3057 3057 3057 3056
3050 3051 3037 3033 3035 3044 3038 3029 3038 3036 3034 3032 3031 3032 3029 3027 3026 3028 3026 3022 3021 3019 3020 3019 3018 3020 3022 3021 3019 3019 3018 3024 3030 3037 3040 3042 3044 3046 3047 3048 3048 3048 3048 3049
3041 3041 3027 3026 3030 3033 3025 3027 3028 3026 3023 3022 3020 3017 3016 3013 3015 3015 3006 3011 3013 3012 3012 3013 3013 3014 3014 3014 3012 3008 3017 3023 3029 3032 3034 3035 3037 3037 3039 3040 3041 3041 3042 3041
3030 3020 3018 3018 3020 3019 3016 3015 3015 3018 3013 3013 3007 3004 3005 3007 3008 3007 3007 3005 3005 3005 3005 3006 3006 3006 3006 3007 3005 3011 3018 3022 3024 3026 3028 3029 3030 3031 3033 3034 3034 3035 3035 3034
3015 3002 2996 3009 3008 3007 3009 3008 3005 3007 3004 3004 2998 2995 2993 2996 2998 3001 2997 2995 2996 2997 2997 2998 2998 2997 2995 2998 3004 3014 3016 3018 3018 3020 3022 3024 3026 3027 3028 3028 3028 3029 3029 3028
2999 2981 3000 2991 2994 2998 2998 2996 2991 2992 2992 2988 2986 2982 2985 2986 2987 2990 2987 2984 2988 2992 2993 2994 2992 2992 2994 2998 3005 3008 3011 3013 3013 3016 3018 3020 3022 3022 3023 3023 3024 3023 3022 3019
2968 2981 2990 2963 2984 2985 2983 2979 2977 2978 2973 2972 2972 2970 2972 2972 2974 2979 2974 2978 2981 2985 2987 2989 2991 2993 2997 3000 3002 3005 3008 3010 3011 3013 3015 3017 3019 3019 3019 3018 3017 3015 3011 3007
2963 2968 2966 2956 2962 2967 2964 2959 2959 2960 2959 2957 2956 2957 2957 2960 2961 2964 2965 2970 2973 2976 2977 2981 2988 2992 2995 2998 3001 3004 3006 3008 3010 3011 3013 3014 3014 3014 3013 3011 3008 3004 2999 2995
2954 2952 2944 2944 2936 2946 2948 2947 2947 2946 2945 2943 2945 2943 2947 2945 2949 2952 2956 2955 2957 2963 2971 2980 2989 2993 2997 2999 3001 3002 3005 3008 3008 3009 3010 3010 3008 3006 3004 3001 2997 2993 2990 2986
2928 2926 2922 2923 2924 2924 2930 2932 2930 2929 2930 2930 2932 2934 2937 2940 2942 2942 2945 2950 2953 2963 2974 2981 2987 2992 2995 2997 2999 3002 3004 3004 3005 3005 3003 3002 3000 2997 2993 2989 2985 2982 2979 2976
2907 2908 2906 2904 2902 2906 2910 2912 2912 2912 2915 2916 2920 2925 2929 2932 2934 2937 2942 2949 2959 2969 2975 2981 2986 2989 2991 2994 2996 2998 2998 2998 2997 2996 2995 2993 2990 2986 2982 2979 2976 2974 2971 2968
2889 2886 2887 2888 2888 2892 2895 2899 2902 2900 2902 2906 2910 2914 2919 2923 2929 2936 2945 2952 2961 2966 2975 2980 2983 2986 2989 2991 2992 2993 2993 2992 2991 2989 2987 2984 2981 2978 2976 2973 2970 2967 2964 2961
2869 2868 2871 2876 2878 2882 2885 2890 2893 2895 2896 2899 2902 2907 2911 2918 2927 2939 2946 2953 2961 2970 2975 2977 2980 2984 2985 2987 2988 2988 2987 2986 2984 2982 2980 2977 2975 2973 2971 2968 2964 2961 2958 2954
2862 2860 2861 2863 2868 2873 2879 2882 2886 2889 2893 2894 2901 2907 2913 2921 2932 2940 2948 2956 2964 2969 2973 2975 2978 2981 2983 2983 2983 2983 2982 2980 2978 2976 2975 2973 2971 2969 2965 2963 2959 2956 2952 2949
2849 2850 2854 2858 2861 2864 2868 2873 2878 2883 2888 2896 2905 2912 2919 2928 2935 2943 2949 2958 2965 2969 2971 2974 2976 2978 2979 2979 2979 2977 2975 2975 2974 2972 2970 2969 2967 2965 2961 2957 2953 2949 2947 2944
2838 2843 2848 2851 2855 2859 2863 2865 2868 2875 2886 2896 2905 2913 2921 2930 2938 2944 2953 2959 2963 2967 2970 2972 2973 2975 2975 2974 2973 2973 2973 2971 2970 2969 2967 2966 2963 2960 2957 2953 2950 2947 2942 2939
2839 2842 2844 2848 2853 2854 2859 2866 2870 2875 2884 2895 2905 2916 2925 2931 2938 2947 2954 2959 2963 2967 2969 2970 2971 2971 2970 2971 2970 2970 2969 2968 2967 2966 2964 2961 2958 2956 2953 2950 2947 2942 2939 2936
2838 2841 2845 2849 2853 2857 2862 2868 2875 2883 2890 2900 2910 2920 2927 2933 2941 2948 2953 2958 2962 2965 2966 2967 2967 2967 2968 2968 2966 2966 2965 2965 2964 2961 2959 2957 2955 2953 2951 2947 2942 2938 2936 2933
2838 2842 2845 2851 2856 2859 2867 2875 2883 2889 2896 2906 2917 2924 2930 2936 2943 2950 2955 2958 2960 2962 2963 2964 2965 2965 2964 2964 2963 2963 2962 2960 2960 2958 2956 2954 2953 2951 2948 2943 2939 2935 2932 2930
2838 2843 2848 2853 2860 2868 2877 2884 2891 2898 2906 2913 2920 2927 2935 2941 2948 2951 2954 2957 2959 2961 2962 2962 2962 2962 2962 2961 2960 2959 2958 2956 2954 2953 2954 2953 2950 2946 2943 2939 2935 2932 2929 2927
2849 2856 2863 2871 2877 2881 2886 2894 2900 2906 2913 2918 2926 2933 2939 2944 2948 2951 2954 2955 2957 2959 2960 2960 2960 2960 2960 2959 2958 2956 2954 2952 2951 2950 2950 2949 2945 2942 2938 2934 2931 2928 2925 2923
2867 2871 2876 2881 2886 2892 2897 2904 2910 2914 2921 2927 2933 2937 2942 2946 2948 2950 2952 2955 2956 2957 2958 2958 2958 2958 2957 2956 2954 2951 2950 2949 2949 2947 2945 2944 2940 2937 2933 2929 2926 2923 2920 2918